SCP
0 0 0 0 0 0 0 0 0 0 0 0 0 0 0 0 0 0 0 0 0 0 0 0 0 0 0 0 0 0 0 0 0 0 0 0 0 0
0 0 0 0 0 0 0 0 0 0 0 0 0 0 0 0 0 0 0 0 0 0 0 0 0 0 0 0 0 0 0 0 0 0 0 0 0 0
0 0 0 0 0 0 0 0 0 0 0 0 0 0 0 0 0 0 0 0 0 0 0 0 0 0 0 0 0 0 0 0 0 0 0 0 0 0
0 0 0 0 0 0 0 0 0 0 0 0 0 0 0 0 0 0 0 0 0 0 0 0 0 0 0 0 0 0 0 0 0 0 0 0 0 0
0 0 0 0 0 0 0 0 0 0 0 0 0 0 0 0 0 0 0 0 0 0 0 0 0 0 0 0 0 0 0 0 0 0 0 0 0 0
-0 -0 -0 0 0 0 0 0 0 0 0 0 0 0 0 0 0 0 0 0 0 0 0 0 0 0 0 0 0 0 0 0 0 0 0 0 0 0
-0 -0 -0 0 0 0 0 0 0 0 0 0 0 0 0 0 0 0 0 0 0 0 0 0 0 0 0 0 0 0 0 0 0 0 0 0 0 0
-0 -0 -0 0 0 0 0 0 0 0 0 0 0 0 0 0 0 0 0 0 0 0 0 0 0 0 0 0 0 0 0 0 0 0 0 0 0 0
0 0 0 0 0 0 0 0 0 0 0 0 0 0 0 0 0 0 0 0 0 0 0 0 0 0 0 0 0 0 0 0 0 0 0 0 0 0
0 0 0 0 0 0 0 0 0 0 0 0 0 0 0 0 0 0 0 0 0 0 0 0 0 0 0 0 0 0 0 0 0 0 0 0 0 0
0 0 0 0 0 0 0 0 0 0 0 0 0 0 0 0 0 0 0 0 0 0 0 0 0 0 0 0 0 0 0 0 0 0 0 0 0 0
0 0 0 0 0 0 0 0 0 0 0 0 0 0 0 0 0 0 0 0 0 0 0 0 0 0 0 0 0 0 0 0 0 0 0 0 0 0
0 0 0 0 0 0 0 0 0 0 0 0 0 0 0 0 0 0 0 0 0 0 0 0 0 0 0 0 0 0 0 0 0 0 0 0 0 0
0 0 0 0 0 0 0 0 0 0 0 0 0 0 0 0 0 0 0 0 0 0 0 0 0 0 0 0 0 0 0 0 0 0 0 0 0 0
0 0 0 0 0 0 0 0 0 0 0 0 0 0 0 0 0 0 0 0 0 0 0 0 0 0 0 0 0 0 0 0 0 0 0 0 0 0
0 0 0 0 0 0 0 0 0 0 0 0 0 0 0 0 0 0 0 0 0 0 0 0 0 0 0 0 0 0 0 0 0 0 0 0 0 0
0 0 0 0 0 0 0 0 0 0 0 0 0 0 0 0 0 0 0 0 0 0 0 0 0 0 0 0 0 0 0 0 0 0 0 0 0 0
0 0 0 0 0 0 0 0 0 0 0 0 0 0 0 0 0 0 0 0 0 0 0 0 0 0 0 0 0 0 0 0 0 0 0 0 0 0
0 0 0 0 0 0 0 0 0 0 0 0 0 0 0 0 0 0 0 0 0 0 0 0 0 0 0 0 0 0 0 0 0 0 0 0 0 0
0 0 0 0 0 0 0 0 0 0 0 0 0 0 0 0 0 0 0 0 0 0 0 0 0 0 0 0 0 0 0 0 0 0 0 0 0 0
0 0 0 0 0 0 0 0 0 0 0 0 0 0 0 0 0 0 0 0 0 0 0 0 0 0 0 0 0 0 0 0 0 0 0 0 0 0
0 0 0 0 0 0 0 0 0 0 0 0 0 0 0 0 0 0 0 0 0 0 0 0 0 0 0 0 0 0 0 0 0 0 0 0 0 0
0 0 0 0 0 0 0 0 0 0 0 0 0 0 0 0 0 0 0 0 0 0 0 0 0 0 0 0 0 0 0 0 0 0 0 0 0 0
Wind_Speed
2 2 1 1 1 1 1 2 3 1 1 2 2 2 1 1 2 2 2 5 7 8 8 8 8 8 9 9 9 9 9 9 9 9 9 9 9 10
2 2 1 1 1 1 1 1 1 3 1 1 1 2 2 2 4 3 3 5 6 6 7 7 7 7 8 8 9 9 9 9 9 9 9 9 9 9
2 2 1 1 1 1 1 1 1 2 2 0 1 2 2 2 2 2 2 2 3 6 6 6 7 7 7 7 8 8 8 8 8 8 8 8 8 8
2 2 1 1 2 1 1 1 1 1 3 2 1 1 1 1 1 2 2 2 2 5 6 6 6 6 6 6 7 7 7 7 7 8 8 8 8 8
2 2 2 3 2 1 1 1 1 2 2 3 1 1 1 1 2 2 2 2 2 3 4 5 6 6 5 6 6 6 6 6 7 7 7 7 7 8
2 2 2 3 3 2 2 2 2 3 3 3 1 1 1 1 1 1 2 2 2 3 4 4 5 6 6 5 5 5 5 5 6 6 6 6 7 7
2 2 2 3 4 3 3 3 3 3 3 2 1 1 1 1 0 0 0 1 2 2 2 2 3 3 3 5 5 5 5 5 6 5 5 5 6 7
3 2 2 2 3 4 5 6 6 4 3 2 1 1 1 1 0 1 0 1 2 2 1 2 2 2 2 2 4 5 5 5 6 6 5 5 5 6
3 2 2 2 2 2 4 5 4 4 5 4 3 2 2 2 2 1 1 1 1 1 1 2 2 2 3 3 5 5 5 6 6 6 6 6 6 6
2 2 2 2 2 3 4 4 3 2 2 2 2 2 2 2 3 2 2 1 0 1 1 1 2 2 3 3 6 6 5 6 7 7 6 6 6 6
2 2 3 2 4 5 5 4 2 2 3 4 4 3 3 3 3 3 2 2 1 1 1 0 2 3 3 3 4 7 7 7 7 7 7 7 7 6
1 1 3 3 5 6 4 4 3 1 1 3 4 4 3 3 3 2 2 1 0 1 1 0 1 2 3 2 2 3 4 6 8 8 8 8 8 4
2 1 1 4 5 6 5 3 4 4 2 3 2 2 2 2 2 1 1 1 1 1 1 1 0 0 1 3 3 2 2 3 3 4 7 9 9 5
3 2 2 5 5 5 4 4 5 5 3 3 2 1 1 1 1 1 1 1 0 1 1 1 1 1 1 2 3 3 3 2 2 3 4 7 7 8
2 4 4 5 4 3 4 5 5 3 3 2 1 0 1 1 1 1 2 2 2 2 2 1 0 1 1 2 2 3 3 3 2 3 4 4 4 4
2 4 5 5 4 3 3 2 2 2 3 2 1 1 0 1 1 1 1 1 1 2 3 2 1 1 1 2 2 3 3 3 4 4 4 4 4 4
4 3 2 2 2 1 1 1 1 2 1 1 1 1 0 0 1 1 0 1 0 2 3 2 2 1 2 2 2 3 3 3 4 4 4 5 5 4
6 3 2 2 3 2 2 1 1 2 2 2 2 1 1 1 0 0 0 0 1 1 2 2 3 3 2 2 3 3 2 3 4 4 3 4 5 5
4 3 3 3 3 3 2 2 2 2 2 2 2 2 1 1 0 0 0 1 1 2 2 2 2 2 3 4 4 2 3 4 4 4 4 4 6 6
3 3 3 3 3 3 3 3 2 2 2 2 2 2 2 1 1 1 1 2 2 2 2 1 1 1 2 4 4 4 5 4 3 5 5 5 5 7
3 3 3 3 3 3 3 3 3 3 2 2 2 2 2 2 2 2 2 2 2 2 2 3 3 3 2 1 3 4 4 5 6 5 5 5 5 5
4 3 3 3 3 3 3 3 3 2 3 2 2 2 2 2 3 3 2 2 2 2 3 3 2 1 1 2 4 5 5 6 7 9 7 6 4 4
4 4 3 3 3 3 3 3 4 3 3 3 2 2 2 2 2 2 2 3 2 2 2 2 2 1 2 3 4 4 6 6 5 5 5 8 10 11
Wind_Direction
118 116 110 102 107 126 143 155 150 152 317 323 335 333 335 46 36 46 42 50 52 51 49 45 42 41 41 39 37 36 35 35 33 32 31 31 31 31
117 107 91 94 93 108 133 125 137 150 165 274 290 321 359 58 57 48 41 47 46 47 46 44 41 42 42 41 42 40 38 33 30 27 26 27 27 25
106 112 99 90 96 92 98 98 99 126 146 279 354 3 34 39 25 31 42 36 33 38 39 43 42 43 45 44 43 41 38 31 27 24 22 21 20 18
125 117 119 108 88 92 99 108 115 125 144 154 8 13 29 26 26 37 31 36 33 30 34 39 40 42 43 42 41 39 34 29 24 19 16 16 13 9
139 137 144 126 109 104 102 103 98 93 103 131 100 34 32 34 36 31 29 11 18 30 33 35 33 37 39 39 36 32 28 24 19 14 10 9 8 5
130 138 142 143 150 144 127 124 112 98 97 107 95 46 28 10 53 37 12 5 2 14 17 22 20 20 21 25 27 25 19 15 12 9 7 6 4 2
115 113 127 146 150 146 138 142 128 113 106 107 104 71 30 39 22 338 5 341 348 5 356 357 360 359 359 358 6 9 8 7 4 0 359 358 358 357
132 111 104 97 113 120 126 134 137 137 144 135 137 152 231 223 180 123 113 34 327 344 11 333 5 339 331 333 349 353 354 359 2 358 355 355 354 350
144 124 102 91 97 104 100 97 98 115 144 154 157 196 203 207 163 140 160 169 237 300 29 321 340 325 322 339 350 354 351 353 353 352 353 353 350 346
131 141 143 143 129 125 114 95 78 65 101 126 156 192 186 177 175 173 175 167 297 2 42 314 319 310 322 331 348 354 353 352 352 350 349 348 345 339
131 138 149 151 147 134 122 116 89 48 64 82 85 81 81 99 119 104 90 83 345 313 14 308 304 308 310 320 341 354 356 357 356 351 346 344 340 337
115 134 157 154 147 141 137 137 139 171 93 67 53 41 40 52 81 112 147 134 168 287 290 268 308 342 323 312 325 341 346 347 350 350 349 345 340 332
155 173 178 157 149 146 143 150 165 148 121 102 76 46 38 35 28 30 97 157 169 243 263 166 224 339 284 302 315 323 335 331 334 337 340 339 339 335
176 187 172 156 149 145 143 141 134 121 109 99 85 55 30 6 352 4 15 28 95 228 262 183 186 218 257 290 298 313 318 318 324 324 326 328 329 327
162 154 148 148 143 138 135 134 128 118 118 114 126 221 263 281 345 13 14 22 19 8 12 349 233 226 217 244 277 296 309 312 320 322 320 318 311 315
127 119 119 118 115 114 113 119 120 136 141 155 174 211 5 33 25 20 11 1 9 340 341 344 325 223 247 261 258 279 287 297 314 315 312 307 303 300
126 98 93 97 103 95 94 107 118 121 137 153 157 152 127 61 339 4 34 40 18 318 327 338 335 297 251 246 273 280 291 296 298 310 313 309 301 300
131 137 154 166 174 177 174 173 169 178 189 182 179 185 190 201 260 0 32 55 293 298 308 320 338 346 344 300 236 268 299 305 311 309 299 297 298 301
146 167 178 186 191 188 187 187 196 201 189 185 187 192 194 202 218 250 280 295 285 283 297 316 341 356 332 315 306 255 292 306 313 313 307 296 292 300
178 182 190 191 192 193 194 195 190 177 183 193 192 191 191 201 219 232 236 250 267 281 299 310 303 285 271 284 291 296 294 296 301 303 303 299 290 294
193 194 193 192 194 194 194 188 185 189 192 192 198 202 199 200 219 231 238 260 267 272 278 281 276 292 286 294 296 299 296 295 296 295 301 305 308 309
193 193 195 194 194 191 185 181 187 193 192 200 205 206 211 209 215 222 229 242 248 254 267 282 300 301 270 271 288 298 303 308 308 307 297 290 294 299
197 193 193 194 193 187 184 188 194 201 201 204 206 208 209 223 227 218 223 231 240 253 267 281 288 278 271 270 282 293 300 308 310 313 307 307 305 303